Location: Darlington Observatory
(36.4817°N, 105.8156°W)
Time: 10:16:22
(UTC-07:00)

NOSS 3-3 (A) - Visible Passes

Search period start: 13 February 2016 00:00
Search period end: 23 February 2016 00:00
Orbit: 939 x 1271 km, 63.4° (Epoch: 11 February)

Date Brightness Start Highest point End Pass type
(mag) Time Alt. Az. Time Alt. Az. Time Alt. Az.
17 Feb 6.8 21:39:50 10° N 21:39:56 10° N 21:39:56 10° N visible
18 Feb 6.5 20:55:31 10° N 20:56:21 12° N 20:56:21 12° N visible
19 Feb 6.5 20:12:31 10° NNE 20:12:46 10° NNE 20:12:46 10° NNE visible
19 Feb 6.8 21:59:46 10° NNW 22:00:11 12° NNW 22:00:11 12° NNW visible
20 Feb 6.4 21:15:03 10° NNW 21:16:38 15° N 21:16:38 15° N visible
21 Feb 6.2 20:30:33 10° N 20:33:06 16° NNE 20:33:06 16° NNE visible
21 Feb 6.8 22:20:03 10° NNW 22:20:32 12° NNW 22:20:32 12° NNW visible
22 Feb 6.2 19:46:29 10° N 19:49:24 12° NNE 19:49:36 12° NNE visible
22 Feb 6.3 21:35:07 10° NNW 21:37:01 19° NNW 21:37:01 19° NNW visible
